User: anonymous
Location: South Tamworth Observatory
(43.8246°N, 71.3026°W)
Time: 23:40:45
(UTC-04:00)
Language:

Cosmos 1844 - Orbit

View from above orbital plane
View from above orbital plane
View from above satellite
View from above satellite

Ground track
Ground track

The orbit data is extracted from the following two-line orbital elements,

1 17973U 87041A   14292.79359362 -.00000266  00000-0 -11416-3 0  8642
2 17973 070.8973 160.7118 0029406 146.6195 286.3588 14.13946479415839
Epoch (UTC): 19 October 2014 19:02:46
Eccentricity: 0.0029406
inclination: 70.8973°
perigee height: 824 km
apogee height: 867 km
right ascension of ascending node: 160.7118°
argument of perigee: 146.6195°
revolutions per day: 14.13946479
mean anomaly at epoch: 286.3588°
orbit number at epoch: 41583

The dashed part of the orbit path shows where the satellite is in the earth's shadow,  

DLR